Time,TemperatureF,DewpointF,PressureIn,WindDirection,WindDirectionDegrees,WindSpeedMPH,WindSpeedGustMPH,Humidity,HourlyPrecipIn,Conditions,Clouds,dailyrainin,SoftwareType,DateUTC
2013-05-24 00:01:00,69.3,46.4,29.74,SW,234,0.0,0.0,44,0.00,,---,0.00,VWS V14.01,2013-05-24 04:01:00,
2013-05-24 00:06:00,69.3,47.0,29.74,NW,312,4.0,4.0,45,0.00,,---,0.00,VWS V14.01,2013-05-24 04:06:00,
2013-05-24 00:11:00,67.3,39.4,29.74,NNW,332,0.0,4.0,36,0.00,,---,0.00,VWS V14.01,2013-05-24 04:11:00,
2013-05-24 00:16:00,65.8,41.5,29.77,SW,226,0.0,2.7,41,0.04,,---,0.04,VWS V14.01,2013-05-24 04:16:00,
2013-05-24 00:21:00,64.8,42.4,29.77,SW,226,0.0,0.0,44,0.12,,---,0.12,VWS V14.01,2013-05-24 04:21:00,
2013-05-24 00:26:00,64.8,44.1,29.77,SW,227,0.0,0.0,47,0.12,,---,0.12,VWS V14.01,2013-05-24 04:26:00,
2013-05-24 00:31:00,64.6,46.1,29.74,SW,229,0.0,0.0,51,0.12,,---,0.12,VWS V14.01,2013-05-24 04:31:00,
2013-05-24 00:36:00,64.6,49.0,29.74,SW,225,0.0,3.1,57,0.16,,---,0.16,VWS V14.01,2013-05-24 04:36:00,
2013-05-24 00:41:00,64.2,49.6,29.74,SW,225,0.0,0.0,59,0.24,,---,0.24,VWS V14.01,2013-05-24 04:41:00,
2013-05-24 00:46:00,64.2,50.9,29.74,SW,225,0.0,0.0,62,0.31,,---,0.31,VWS V14.01,2013-05-24 04:46:00,
2013-05-24 00:51:00,64.0,51.6,29.74,SW,225,0.0,0.0,64,0.35,,---,0.35,VWS V14.01,2013-05-24 04:51:00,
2013-05-24 00:56:00,64.2,52.2,29.74,SW,225,0.0,0.0,65,0.35,,---,0.35,VWS V14.01,2013-05-24 04:56:00,
2013-05-24 01:01:00,64.2,53.0,29.74,SW,225,0.0,0.0,67,0.35,,---,0.35,VWS V14.01,2013-05-24 05:01:00,
2013-05-24 01:06:00,64.0,52.9,29.74,SW,225,0.0,0.0,67,0.35,,---,0.35,VWS V14.01,2013-05-24 05:06:00,
2013-05-24 01:11:00,63.9,52.7,29.74,South,175,0.0,0.0,67,0.35,,---,0.35,VWS V14.01,2013-05-24 05:11:00,
2013-05-24 01:16:00,63.9,53.1,29.71,ESE,106,0.0,0.0,68,0.31,,---,0.35,VWS V14.01,2013-05-24 05:16:00,
2013-05-24 01:21:00,63.9,53.5,29.71,ESE,106,0.0,0.0,69,0.24,,---,0.35,VWS V14.01,2013-05-24 05:21:00,
2013-05-24 01:26:00,64.0,54.1,29.71,ESE,106,0.0,0.0,70,0.24,,---,0.35,VWS V14.01,2013-05-24 05:26:00,
2013-05-24 01:31:00,64.0,54.1,29.71,ESE,106,0.0,0.0,70,0.24,,---,0.35,VWS V14.01,2013-05-24 05:31:00,
2013-05-24 01:36:00,64.2,54.2,29.71,ESE,106,0.0,0.0,70,0.20,,---,0.35,VWS V14.01,2013-05-24 05:36:00,
2013-05-24 01:41:00,64.2,54.6,29.71,ESE,106,0.0,0.0,71,0.12,,---,0.35,VWS V14.01,2013-05-24 05:41:00,
2013-05-24 01:46:00,64.2,54.6,29.74,ESE,106,0.0,0.0,71,0.04,,---,0.35,VWS V14.01,2013-05-24 05:46:00,
2013-05-24 01:51:00,64.0,54.5,29.74,ESE,106,0.0,0.0,71,0.00,,---,0.35,VWS V14.01,2013-05-24 05:51:00,
2013-05-24 01:56:00,64.0,54.5,29.74,ESE,106,0.0,0.0,71,0.00,,---,0.35,VWS V14.01,2013-05-24 05:56:00,
2013-05-24 02:01:00,63.9,54.7,29.71,ESE,106,0.0,0.0,72,0.00,,---,0.35,VWS V14.01,2013-05-24 06:01:00,
2013-05-24 02:06:00,63.9,55.0,29.71,ESE,106,0.0,0.0,73,0.00,,---,0.35,VWS V14.01,2013-05-24 06:06:00,
2013-05-24 02:11:00,64.0,55.2,29.71,ESE,106,0.0,0.0,73,0.00,,---,0.35,VWS V14.01,2013-05-24 06:11:00,
2013-05-24 02:16:00,63.9,55.0,29.71,ESE,106,0.0,0.0,73,0.04,,---,0.39,VWS V14.01,2013-05-24 06:16:00,
2013-05-24 02:21:00,63.9,55.4,29.71,ESE,106,0.0,0.0,74,0.04,,---,0.39,VWS V14.01,2013-05-24 06:21:00,
2013-05-24 02:26:00,63.7,55.2,29.71,ESE,106,0.0,0.0,74,0.04,,---,0.39,VWS V14.01,2013-05-24 06:26:00,
2013-05-24 02:31:00,63.5,55.1,29.71,ESE,116,0.0,0.0,74,0.04,,---,0.39,VWS V14.01,2013-05-24 06:31:00,
2013-05-24 02:36:00,63.5,55.4,29.71,SW,217,0.0,0.0,75,0.04,,---,0.39,VWS V14.01,2013-05-24 06:36:00,
2013-05-24 02:41:00,63.5,55.8,29.71,SW,217,0.0,0.0,76,0.04,,---,0.39,VWS V14.01,2013-05-24 06:41:00,
2013-05-24 02:46:00,63.7,56.3,29.71,SW,217,0.0,0.0,77,0.04,,---,0.39,VWS V14.01,2013-05-24 06:46:00,
2013-05-24 02:51:00,63.7,56.3,29.71,SW,217,0.0,0.0,77,0.04,,---,0.39,VWS V14.01,2013-05-24 06:51:00,
2013-05-24 02:56:00,63.7,56.3,29.71,SW,217,0.0,0.0,77,0.04,,---,0.39,VWS V14.01,2013-05-24 06:56:00,
2013-05-24 03:01:00,63.7,56.3,29.71,SW,217,0.0,0.0,77,0.04,,---,0.39,VWS V14.01,2013-05-24 07:01:00,
2013-05-24 03:06:00,63.7,56.3,29.71,SW,218,0.0,0.0,77,0.04,,---,0.39,VWS V14.01,2013-05-24 07:06:00,
2013-05-24 03:11:00,63.5,56.5,29.71,SW,217,0.0,0.0,78,0.04,,---,0.39,VWS V14.01,2013-05-24 07:11:00,
2013-05-24 03:16:00,63.5,56.5,29.71,SW,217,0.0,0.0,78,0.00,,---,0.39,VWS V14.01,2013-05-24 07:16:00,
2013-05-24 03:21:00,63.5,56.5,29.71,SW,218,0.0,0.0,78,0.00,,---,0.39,VWS V14.01,2013-05-24 07:21:00,
2013-05-24 03:26:00,63.5,56.5,29.71,SW,217,0.0,0.0,78,0.00,,---,0.39,VWS V14.01,2013-05-24 07:26:00,
2013-05-24 03:31:00,63.3,56.3,29.71,SW,217,0.0,0.0,78,0.00,,---,0.39,VWS V14.01,2013-05-24 07:31:00,
2013-05-24 03:36:00,63.3,56.3,29.71,SW,217,0.0,0.0,78,0.00,,---,0.39,VWS V14.01,2013-05-24 07:36:00,
2013-05-24 03:41:00,63.3,56.3,29.71,SW,217,0.0,0.0,78,0.00,,---,0.39,VWS V14.01,2013-05-24 07:41:00,
2013-05-24 03:46:00,63.1,56.2,29.71,SW,217,0.0,0.0,78,0.00,,---,0.39,VWS V14.01,2013-05-24 07:46:00,
2013-05-24 03:51:00,63.1,56.2,29.71,SW,217,0.0,0.0,78,0.00,,---,0.39,VWS V14.01,2013-05-24 07:51:00,
2013-05-24 03:55:00,63.1,56.5,29.71,SW,218,0.0,0.0,79,0.00,,---,0.39,VWS V14.01,2013-05-24 07:55:00,
2013-05-24 04:00:00,63.1,56.9,29.71,SW,218,0.0,0.0,80,0.00,,---,0.39,VWS V14.01,2013-05-24 08:00:00,
2013-05-24 04:05:00,63.1,56.9,29.71,SW,218,0.0,0.0,80,0.00,,---,0.39,VWS V14.01,2013-05-24 08:05:00,
2013-05-24 04:10:00,63.1,56.9,29.71,SW,218,0.0,0.0,80,0.00,,---,0.39,VWS V14.01,2013-05-24 08:10:00,
2013-05-24 04:15:00,63.0,56.7,29.71,SW,218,0.0,0.0,80,0.00,,---,0.39,VWS V14.01,2013-05-24 08:15:00,
2013-05-24 04:20:00,63.1,56.9,29.71,SW,218,0.0,0.0,80,0.00,,---,0.39,VWS V14.01,2013-05-24 08:20:00,
2013-05-24 04:25:00,63.0,56.7,29.71,SW,218,0.0,0.0,80,0.00,,---,0.39,VWS V14.01,2013-05-24 08:25:00,
2013-05-24 04:30:00,62.8,56.5,29.71,SW,218,0.0,0.0,80,0.00,,---,0.39,VWS V14.01,2013-05-24 08:30:00,
2013-05-24 04:35:00,62.8,56.9,29.71,SW,218,0.0,0.0,81,0.00,,---,0.39,VWS V14.01,2013-05-24 08:35:00,
2013-05-24 04:40:00,63.0,57.0,29.71,SW,218,0.0,0.0,81,0.00,,---,0.39,VWS V14.01,2013-05-24 08:40:00,
2013-05-24 04:45:00,63.1,57.6,29.71,SW,218,0.0,0.0,82,0.00,,---,0.39,VWS V14.01,2013-05-24 08:45:00,
2013-05-24 04:50:00,63.0,57.4,29.71,SW,218,0.0,0.0,82,0.00,,---,0.39,VWS V14.01,2013-05-24 08:50:00,
2013-05-24 04:55:00,63.0,57.4,29.71,SW,218,0.0,0.0,82,0.00,,---,0.39,VWS V14.01,2013-05-24 08:55:00,
2013-05-24 05:00:00,63.0,57.4,29.71,SW,218,0.0,0.0,82,0.00,,---,0.39,VWS V14.01,2013-05-24 09:00:00,
2013-05-24 05:05:00,62.8,57.2,29.71,SW,218,0.0,0.0,82,0.00,,---,0.39,VWS V14.01,2013-05-24 09:05:00,
2013-05-24 05:10:00,62.8,57.2,29.71,SW,218,0.0,0.0,82,0.00,,---,0.39,VWS V14.01,2013-05-24 09:10:00,
2013-05-24 05:15:00,62.8,57.2,29.71,SW,218,0.0,0.0,82,0.00,,---,0.39,VWS V14.01,2013-05-24 09:15:00,
2013-05-24 05:20:00,63.0,57.4,29.71,SW,218,0.0,0.0,82,0.00,,---,0.39,VWS V14.01,2013-05-24 09:20:00,
2013-05-24 05:25:00,63.0,57.4,29.71,SW,218,0.0,0.0,82,0.00,,---,0.39,VWS V14.01,2013-05-24 09:25:00,
2013-05-24 05:30:00,62.8,57.5,29.71,SW,218,0.0,0.0,83,0.00,,---,0.39,VWS V14.01,2013-05-24 09:30:00,
2013-05-24 05:35:00,62.8,57.5,29.71,SW,218,0.0,0.0,83,0.00,,---,0.39,VWS V14.01,2013-05-24 09:35:00,
2013-05-24 05:40:00,62.8,57.5,29.71,SW,218,0.0,0.0,83,0.00,,---,0.39,VWS V14.01,2013-05-24 09:40:00,
2013-05-24 05:45:00,62.8,57.5,29.71,SW,218,0.0,0.0,83,0.00,,---,0.39,VWS V14.01,2013-05-24 09:45:00,
2013-05-24 05:50:00,62.8,57.5,29.71,SW,218,0.0,0.0,83,0.00,,---,0.39,VWS V14.01,2013-05-24 09:50:00,
2013-05-24 05:55:00,63.0,57.7,29.71,SW,218,0.0,0.0,83,0.00,,---,0.39,VWS V14.01,2013-05-24 09:55:00,
2013-05-24 06:00:00,63.0,57.7,29.71,SW,218,0.0,0.0,83,0.00,,---,0.39,VWS V14.01,2013-05-24 10:00:00,
2013-05-24 06:05:00,63.0,58.1,29.71,SW,218,0.0,0.0,84,0.00,,---,0.39,VWS V14.01,2013-05-24 10:05:00,
2013-05-24 06:10:00,63.0,58.1,29.71,SW,218,0.0,0.0,84,0.00,,---,0.39,VWS V14.01,2013-05-24 10:10:00,
2013-05-24 06:15:00,63.1,58.2,29.71,SW,218,0.0,0.0,84,0.00,,---,0.39,VWS V14.01,2013-05-24 10:15:00,
2013-05-24 06:20:00,63.1,58.2,29.71,SW,218,0.0,0.0,84,0.00,,---,0.39,VWS V14.01,2013-05-24 10:20:00,
2013-05-24 06:25:00,63.1,58.2,29.71,SW,218,0.0,0.0,84,0.00,,---,0.39,VWS V14.01,2013-05-24 10:25:00,
2013-05-24 06:30:00,63.3,58.7,29.71,SW,218,0.0,0.0,85,0.00,,---,0.39,VWS V14.01,2013-05-24 10:30:00,
2013-05-24 06:35:00,63.1,58.6,29.71,SW,218,0.0,0.0,85,0.00,,---,0.39,VWS V14.01,2013-05-24 10:35:00,
2013-05-24 06:40:00,63.3,58.7,29.71,SW,218,0.0,0.0,85,0.00,,---,0.39,VWS V14.01,2013-05-24 10:40:00,
2013-05-24 06:45:00,63.3,58.7,29.74,SW,218,0.0,0.0,85,0.00,,---,0.39,VWS V14.01,2013-05-24 10:45:00,
2013-05-24 06:50:00,63.5,59.2,29.74,SW,218,0.0,0.0,86,0.00,,---,0.39,VWS V14.01,2013-05-24 10:50:00,
2013-05-24 06:55:00,63.5,59.2,29.74,SW,218,0.0,0.0,86,0.00,,---,0.39,VWS V14.01,2013-05-24 10:55:00,
2013-05-24 07:00:00,63.7,59.4,29.74,SW,218,0.0,0.0,86,0.00,,---,0.39,VWS V14.01,2013-05-24 11:00:00,
2013-05-24 07:05:00,63.9,59.6,29.74,SW,218,0.0,0.0,86,0.00,,---,0.39,VWS V14.01,2013-05-24 11:05:00,
2013-05-24 07:10:00,63.9,59.6,29.74,SW,218,0.0,0.0,86,0.00,,---,0.39,VWS V14.01,2013-05-24 11:10:00,
2013-05-24 07:15:00,64.0,60.1,29.74,SW,218,0.0,0.0,87,0.00,,---,0.39,VWS V14.01,2013-05-24 11:15:00,
2013-05-24 07:20:00,64.2,60.3,29.74,SW,218,0.0,0.0,87,0.00,,---,0.39,VWS V14.01,2013-05-24 11:20:00,
2013-05-24 07:25:00,64.4,60.1,29.74,SW,218,0.0,0.0,86,0.00,,---,0.39,VWS V14.01,2013-05-24 11:25:00,
2013-05-24 07:30:00,64.4,60.5,29.74,SW,218,0.0,0.0,87,0.00,,---,0.39,VWS V14.01,2013-05-24 11:30:00,
2013-05-24 07:35:00,64.8,60.8,29.74,SW,218,0.0,0.0,87,0.00,,---,0.39,VWS V14.01,2013-05-24 11:35:00,
2013-05-24 07:40:00,64.8,60.8,29.74,SW,218,0.0,0.0,87,0.00,,---,0.39,VWS V14.01,2013-05-24 11:40:00,
2013-05-24 07:45:00,65.1,61.2,29.74,SW,218,0.0,0.0,87,0.00,,---,0.39,VWS V14.01,2013-05-24 11:45:00,
2013-05-24 07:50:00,65.1,61.2,29.74,SW,218,0.0,0.0,87,0.00,,---,0.39,VWS V14.01,2013-05-24 11:50:00,
2013-05-24 07:55:00,65.3,61.3,29.74,SW,218,0.0,0.0,87,0.00,,---,0.39,VWS V14.01,2013-05-24 11:55:00,
2013-05-24 08:00:00,65.5,61.5,29.74,SW,218,0.0,0.0,87,0.00,,---,0.39,VWS V14.01,2013-05-24 12:00:00,
2013-05-24 08:05:00,65.7,61.7,29.74,SW,218,0.0,0.0,87,0.00,,---,0.39,VWS V14.01,2013-05-24 12:05:00,
2013-05-24 08:10:00,66.0,62.0,29.74,SW,218,0.0,0.0,87,0.00,,---,0.39,VWS V14.01,2013-05-24 12:10:00,
2013-05-24 08:15:00,66.2,61.9,29.74,SW,218,0.0,0.0,86,0.00,,---,0.39,VWS V14.01,2013-05-24 12:15:00,
2013-05-24 08:20:00,66.6,62.2,29.74,SW,220,0.0,0.0,86,0.00,,---,0.39,VWS V14.01,2013-05-24 12:20:00,
2013-05-24 08:25:00,66.9,62.9,29.74,SW,223,0.0,2.2,87,0.00,,---,0.39,VWS V14.01,2013-05-24 12:25:00,
2013-05-24 08:30:00,67.1,63.1,29.74,SW,227,0.0,0.0,87,0.00,,---,0.39,VWS V14.01,2013-05-24 12:30:00,
2013-05-24 08:35:00,67.8,63.8,29.74,SW,229,0.0,0.0,87,0.00,,---,0.39,VWS V14.01,2013-05-24 12:35:00,
2013-05-24 08:40:00,68.0,63.7,29.74,SW,228,0.0,0.0,86,0.00,,---,0.39,VWS V14.01,2013-05-24 12:40:00,
2013-05-24 08:45:00,68.0,63.7,29.74,SW,227,3.1,3.1,86,0.00,,---,0.39,VWS V14.01,2013-05-24 12:45:00,
2013-05-24 08:50:00,67.6,63.0,29.74,SW,230,0.0,0.0,85,0.00,,---,0.39,VWS V14.01,2013-05-24 12:50:00,
2013-05-24 08:55:00,67.5,62.5,29.74,SW,231,0.0,0.0,84,0.00,,---,0.39,VWS V14.01,2013-05-24 12:55:00,
2013-05-24 09:00:00,67.5,62.1,29.74,SW,231,0.0,0.0,83,0.00,,---,0.39,VWS V14.01,2013-05-24 13:00:00,
2013-05-24 09:05:00,67.5,61.8,29.74,SW,231,0.0,0.0,82,0.00,,---,0.39,VWS V14.01,2013-05-24 13:05:00,
2013-05-24 09:10:00,67.5,61.8,29.74,SW,232,0.0,0.0,82,0.00,,---,0.39,VWS V14.01,2013-05-24 13:10:00,
2013-05-24 09:15:00,67.3,61.3,29.74,SW,234,0.0,0.0,81,0.00,,---,0.39,VWS V14.01,2013-05-24 13:15:00,
2013-05-24 09:20:00,67.5,60.7,29.74,WSW,238,0.0,0.0,79,0.00,,---,0.39,VWS V14.01,2013-05-24 13:20:00,
2013-05-24 09:25:00,67.5,60.4,29.74,WSW,240,0.0,0.0,78,0.00,,---,0.39,VWS V14.01,2013-05-24 13:25:00,
2013-05-24 09:30:00,66.9,59.1,29.74,WSW,238,0.0,0.0,76,0.00,,---,0.39,VWS V14.01,2013-05-24 13:30:00,
2013-05-24 09:35:00,65.5,54.2,29.74,North,353,4.0,6.7,67,0.00,,---,0.39,VWS V14.01,2013-05-24 13:35:00,
2013-05-24 09:40:00,61.0,37.8,29.74,WNW,297,3.1,8.3,42,0.00,,---,0.39,VWS V14.01,2013-05-24 13:40:00,
2013-05-24 09:45:00,59.7,40.0,29.77,WNW,298,6.3,6.3,48,0.00,,---,0.39,VWS V14.01,2013-05-24 13:45:00,
2013-05-24 09:50:00,59.2,40.0,29.77,North,9,3.1,3.1,49,0.00,,---,0.39,VWS V14.01,2013-05-24 13:50:00,
2013-05-24 09:55:00,58.5,39.4,29.77,NE,48,0.0,4.0,49,0.00,,---,0.39,VWS V14.01,2013-05-24 13:55:00,
2013-05-24 10:00:00,58.1,39.6,29.77,NNE,16,0.0,2.2,50,0.00,,---,0.39,VWS V14.01,2013-05-24 14:00:00,
2013-05-24 10:05:00,57.0,37.0,29.77,NW,306,3.6,4.0,47,0.00,,---,0.39,VWS V14.01,2013-05-24 14:05:00,
2013-05-24 10:10:00,56.7,37.7,29.77,South,186,0.0,2.2,49,0.00,,---,0.39,VWS V14.01,2013-05-24 14:10:00,
2013-05-24 10:15:00,56.1,37.2,29.77,WNW,294,2.7,3.1,49,0.00,,---,0.39,VWS V14.01,2013-05-24 14:15:00,
2013-05-24 10:20:00,55.8,36.4,29.77,NE,46,3.1,3.1,48,0.00,,---,0.39,VWS V14.01,2013-05-24 14:20:00,
2013-05-24 10:25:00,55.0,34.7,29.77,West,262,2.7,4.0,46,0.00,,---,0.39,VWS V14.01,2013-05-24 14:25:00,
2013-05-24 10:30:00,54.7,33.8,29.80,NNW,345,0.0,0.0,45,0.00,,---,0.39,VWS V14.01,2013-05-24 14:30:00,
2013-05-24 10:35:00,55.0,35.7,29.80,ENE,57,2.7,4.0,48,0.00,,---,0.39,VWS V14.01,2013-05-24 14:35:00,
2013-05-24 10:40:00,54.1,32.2,29.80,NW,310,0.0,0.0,43,0.00,,---,0.39,VWS V14.01,2013-05-24 14:40:00,
2013-05-24 10:45:00,53.8,33.0,29.80,WNW,295,0.0,3.6,45,0.00,,---,0.39,VWS V14.01,2013-05-24 14:45:00,
2013-05-24 10:50:00,53.8,34.0,29.80,ENE,58,3.1,3.1,47,0.00,,---,0.39,VWS V14.01,2013-05-24 14:50:00,
2013-05-24 10:55:00,53.4,34.2,29.80,NNE,32,3.1,3.1,48,0.00,,---,0.39,VWS V14.01,2013-05-24 14:55:00,
2013-05-24 11:00:00,52.9,33.2,29.80,SW,216,2.7,3.1,47,0.00,,---,0.39,VWS V14.01,2013-05-24 15:00:00,
2013-05-24 11:05:00,53.2,34.6,29.80,NW,317,2.2,4.0,49,0.00,,---,0.39,VWS V14.01,2013-05-24 15:05:00,
2013-05-24 11:10:00,52.7,32.5,29.80,SW,226,3.1,3.1,46,0.00,,---,0.39,VWS V14.01,2013-05-24 15:10:00,
2013-05-24 11:15:00,52.7,35.1,29.83,WNW,299,0.0,2.2,51,0.00,,---,0.39,VWS V14.01,2013-05-24 15:15:00,
2013-05-24 11:20:00,52.0,32.9,29.83,North,357,0.0,4.0,48,0.00,,---,0.39,VWS V14.01,2013-05-24 15:20:00,
2013-05-24 11:25:00,52.2,33.6,29.83,SSW,199,0.0,3.6,49,0.00,,---,0.39,VWS V14.01,2013-05-24 15:25:00,
2013-05-24 11:30:00,51.4,32.4,29.83,North,8,0.0,3.6,48,0.00,,---,0.39,VWS V14.01,2013-05-24 15:30:00,
2013-05-24 11:35:00,52.0,35.4,29.83,SW,222,0.0,2.7,53,0.00,,---,0.39,VWS V14.01,2013-05-24 15:35:00,
2013-05-24 11:40:00,52.0,36.3,29.83,East,86,2.2,2.2,55,0.00,,---,0.39,VWS V14.01,2013-05-24 15:40:00,
2013-05-24 11:45:00,51.4,33.4,29.83,NNE,19,2.2,4.0,50,0.00,,---,0.39,VWS V14.01,2013-05-24 15:45:00,
2013-05-24 11:50:00,51.8,34.3,29.83,NNW,340,3.1,3.1,51,0.00,,---,0.39,VWS V14.01,2013-05-24 15:50:00,
2013-05-24 11:55:00,51.8,34.3,29.83,WSW,244,2.7,5.4,51,0.00,,---,0.39,VWS V14.01,2013-05-24 15:55:00,
2013-05-24 12:00:00,51.6,34.1,29.83,SSE,154,0.0,3.1,51,0.00,,---,0.39,VWS V14.01,2013-05-24 16:00:00,
2013-05-24 12:05:00,52.2,36.5,29.83,South,190,2.7,2.7,55,0.00,,---,0.39,VWS V14.01,2013-05-24 16:05:00,
2013-05-24 12:10:00,52.3,37.1,29.83,SW,217,4.5,4.5,56,0.00,,---,0.39,VWS V14.01,2013-05-24 16:10:00,
2013-05-24 12:15:00,52.5,38.2,29.83,SE,143,0.0,3.1,58,0.00,,---,0.39,VWS V14.01,2013-05-24 16:15:00,
2013-05-24 12:20:00,51.8,34.3,29.83,SW,231,3.6,3.6,51,0.00,,---,0.39,VWS V14.01,2013-05-24 16:20:00,
2013-05-24 12:25:00,51.4,32.9,29.83,NNE,27,0.0,0.0,49,0.00,,---,0.39,VWS V14.01,2013-05-24 16:25:00,
2013-05-24 12:30:00,52.3,34.8,29.83,ESE,117,3.1,3.1,51,0.04,,---,0.43,VWS V14.01,2013-05-24 16:30:00,
2013-05-24 12:35:00,52.0,33.4,29.83,NW,312,0.0,0.0,49,0.04,,---,0.43,VWS V14.01,2013-05-24 16:35:00,
2013-05-24 12:40:00,52.7,35.1,29.83,NW,316,0.0,0.0,51,0.04,,---,0.43,VWS V14.01,2013-05-24 16:40:00,
2013-05-24 12:45:00,52.3,33.8,29.85,NE,38,0.0,3.1,49,0.04,,---,0.43,VWS V14.01,2013-05-24 16:45:00,
2013-05-24 12:50:00,51.1,30.5,29.85,East,84,0.0,2.7,45,0.04,,---,0.43,VWS V14.01,2013-05-24 16:50:00,
2013-05-24 12:55:00,50.7,30.2,29.85,North,1,0.0,3.1,45,0.04,,---,0.43,VWS V14.01,2013-05-24 16:55:00,
2013-05-24 13:00:00,49.8,27.7,29.85,North,6,0.0,3.1,42,0.04,,---,0.43,VWS V14.01,2013-05-24 17:00:00,
2013-05-24 13:05:00,50.7,31.8,29.85,NW,304,3.1,3.1,48,0.04,,---,0.43,VWS V14.01,2013-05-24 17:05:00,
2013-05-24 13:10:00,51.1,31.6,29.85,ESE,113,2.7,3.6,47,0.04,,---,0.43,VWS V14.01,2013-05-24 17:10:00,
2013-05-24 13:15:00,51.1,29.4,29.85,NNW,346,0.0,0.0,43,0.04,,---,0.43,VWS V14.01,2013-05-24 17:15:00,
2013-05-24 13:20:00,51.4,28.5,29.85,North,9,5.4,7.2,41,0.04,,---,0.43,VWS V14.01,2013-05-24 17:20:00,
2013-05-24 13:25:00,51.1,27.0,29.85,NW,306,0.0,3.1,39,0.04,,---,0.43,VWS V14.01,2013-05-24 17:25:00,
2013-05-24 13:30:00,50.9,26.8,29.85,NNW,338,3.6,3.6,39,0.00,,---,0.43,VWS V14.01,2013-05-24 17:30:00,
2013-05-24 13:35:00,51.3,27.2,29.85,NNW,327,0.0,0.0,39,0.00,,---,0.43,VWS V14.01,2013-05-24 17:35:00,
2013-05-24 13:40:00,50.9,25.6,29.85,North,3,3.1,7.2,37,0.00,,---,0.43,VWS V14.01,2013-05-24 17:40:00,
2013-05-24 13:45:00,50.7,26.0,29.85,NE,48,0.0,0.0,38,0.00,,---,0.43,VWS V14.01,2013-05-24 17:45:00,
2013-05-24 13:50:00,50.5,26.5,29.85,North,350,0.0,0.0,39,0.00,,---,0.43,VWS V14.01,2013-05-24 17:50:00,
2013-05-24 13:55:00,50.7,30.2,29.85,NNE,30,0.0,0.0,45,0.00,,---,0.43,VWS V14.01,2013-05-24 17:55:00,
2013-05-24 14:00:00,50.7,30.7,29.85,West,267,0.0,0.0,46,0.00,,---,0.43,VWS V14.01,2013-05-24 18:00:00,
2013-05-24 14:05:00,50.4,28.2,29.85,NE,45,2.2,2.2,42,0.00,,---,0.43,VWS V14.01,2013-05-24 18:05:00,
2013-05-24 14:10:00,50.7,29.1,29.85,SW,235,2.7,2.7,43,0.00,,---,0.43,VWS V14.01,2013-05-24 18:10:00,
2013-05-24 14:15:00,51.1,31.0,29.85,NE,55,2.7,2.7,46,0.00,,---,0.43,VWS V14.01,2013-05-24 18:15:00,
2013-05-24 14:20:00,50.4,30.4,29.85,East,79,3.6,3.6,46,0.00,,---,0.43,VWS V14.01,2013-05-24 18:20:00,
2013-05-24 14:25:00,50.0,29.0,29.85,North,2,0.0,0.0,44,0.00,,---,0.43,VWS V14.01,2013-05-24 18:25:00,
2013-05-24 14:30:00,50.2,30.2,29.85,NE,43,0.0,0.0,46,0.00,,---,0.43,VWS V14.01,2013-05-24 18:30:00,
2013-05-24 14:35:00,50.7,31.8,29.85,NW,304,2.2,4.0,48,0.04,,---,0.47,VWS V14.01,2013-05-24 18:35:00,
2013-05-24 14:40:00,50.2,29.1,29.85,NW,304,0.0,0.0,44,0.04,,---,0.47,VWS V14.01,2013-05-24 18:40:00,
2013-05-24 14:45:00,50.5,32.1,29.88,NNE,21,0.0,0.0,49,0.04,,---,0.47,VWS V14.01,2013-05-24 18:45:00,
2013-05-24 14:50:00,50.4,31.9,29.88,ENE,73,2.2,2.2,49,0.04,,---,0.47,VWS V14.01,2013-05-24 18:50:00,
2013-05-24 14:55:00,49.8,30.4,29.88,North,357,0.0,0.0,47,0.04,,---,0.47,VWS V14.01,2013-05-24 18:55:00,
2013-05-24 15:00:00,49.6,30.8,29.88,NE,37,0.0,0.0,48,0.04,,---,0.47,VWS V14.01,2013-05-24 19:00:00,
2013-05-24 15:05:00,50.0,31.6,29.88,North,353,0.0,0.0,49,0.04,,---,0.47,VWS V14.01,2013-05-24 19:05:00,
2013-05-24 15:10:00,50.0,31.6,29.88,NE,37,0.0,0.0,49,0.04,,---,0.47,VWS V14.01,2013-05-24 19:10:00,
2013-05-24 15:15:00,51.3,35.2,29.85,West,262,0.0,0.0,54,0.04,,---,0.47,VWS V14.01,2013-05-24 19:15:00,
2013-05-24 15:20:00,52.0,36.3,29.85,WNW,291,0.0,0.0,55,0.04,,---,0.47,VWS V14.01,2013-05-24 19:20:00,
2013-05-24 15:25:00,51.6,33.1,29.85,ENE,76,0.0,0.0,49,0.04,,---,0.47,VWS V14.01,2013-05-24 19:25:00,
2013-05-24 15:30:00,52.2,35.1,29.85,South,189,0.0,0.0,52,0.04,,---,0.47,VWS V14.01,2013-05-24 19:30:00,
2013-05-24 15:35:00,50.9,30.9,29.85,NE,44,5.8,5.8,46,0.00,,---,0.47,VWS V14.01,2013-05-24 19:35:00,
2013-05-24 15:40:00,50.5,30.5,29.85,NE,46,0.0,0.0,46,0.00,,---,0.47,VWS V14.01,2013-05-24 19:40:00,
2013-05-24 15:45:00,50.5,31.1,29.88,NE,55,0.0,0.0,47,0.00,,---,0.47,VWS V14.01,2013-05-24 19:45:00,
2013-05-24 15:50:00,50.0,29.5,29.88,West,276,0.0,0.0,45,0.00,,---,0.47,VWS V14.01,2013-05-24 19:50:00,
2013-05-24 15:55:00,51.1,33.6,29.88,ESE,109,0.0,0.0,51,0.00,,---,0.47,VWS V14.01,2013-05-24 19:55:00,
2013-05-24 16:00:00,50.0,28.4,29.88,North,7,0.0,0.0,43,0.00,,---,0.47,VWS V14.01,2013-05-24 20:00:00,
2013-05-24 16:05:00,49.6,27.5,29.88,NNE,29,0.0,0.0,42,0.00,,---,0.47,VWS V14.01,2013-05-24 20:05:00,
2013-05-24 16:10:00,49.6,28.6,29.88,NNE,18,0.0,0.0,44,0.00,,---,0.47,VWS V14.01,2013-05-24 20:10:00,
2013-05-24 16:15:00,50.7,32.3,29.88,East,100,0.0,0.0,49,0.00,,---,0.47,VWS V14.01,2013-05-24 20:15:00,
2013-05-24 16:20:00,50.2,30.8,29.88,ENE,71,2.7,4.0,47,0.00,,---,0.47,VWS V14.01,2013-05-24 20:20:00,
2013-05-24 16:25:00,49.8,27.1,29.88,WNW,297,0.0,2.7,41,0.00,,---,0.47,VWS V14.01,2013-05-24 20:25:00,
2013-05-24 16:30:00,49.5,25.5,29.88,North,7,2.7,2.7,39,0.00,,---,0.47,VWS V14.01,2013-05-24 20:30:00,
2013-05-24 16:35:00,49.3,26.0,29.88,NW,318,0.0,0.0,40,0.00,,---,0.47,VWS V14.01,2013-05-24 20:35:00,
2013-05-24 16:40:00,49.8,28.2,29.88,NNE,33,0.0,0.0,43,0.00,,---,0.47,VWS V14.01,2013-05-24 20:40:00,
2013-05-24 16:45:00,50.4,30.4,29.88,NNE,32,0.0,3.6,46,0.00,,---,0.47,VWS V14.01,2013-05-24 20:45:00,
2013-05-24 16:50:00,50.2,26.2,29.88,SSW,210,0.0,0.0,39,0.00,,---,0.47,VWS V14.01,2013-05-24 20:50:00,
2013-05-24 16:55:00,50.4,26.4,29.88,West,263,0.0,0.0,39,0.00,,---,0.47,VWS V14.01,2013-05-24 20:55:00,
2013-05-24 17:00:00,50.2,24.9,29.88,NNW,330,0.0,0.0,37,0.00,,---,0.47,VWS V14.01,2013-05-24 21:00:00,
2013-05-24 17:05:00,50.5,25.2,29.88,WNW,290,0.0,4.5,37,0.00,,---,0.47,VWS V14.01,2013-05-24 21:05:00,
2013-05-24 17:10:00,50.4,25.1,29.88,NW,308,0.0,2.2,37,0.00,,---,0.47,VWS V14.01,2013-05-24 21:10:00,
2013-05-24 17:15:00,50.5,25.2,29.91,North,3,0.0,0.0,37,0.00,,---,0.47,VWS V14.01,2013-05-24 21:15:00,
2013-05-24 17:20:00,50.4,25.1,29.91,North,5,0.0,0.0,37,0.00,,---,0.47,VWS V14.01,2013-05-24 21:20:00,
2013-05-24 17:25:00,50.2,24.9,29.91,NNE,27,0.0,3.6,37,0.00,,---,0.47,VWS V14.01,2013-05-24 21:25:00,
2013-05-24 17:30:00,50.4,25.1,29.91,WSW,248,0.0,0.0,37,0.00,,---,0.47,VWS V14.01,2013-05-24 21:30:00,
2013-05-24 17:35:00,49.8,24.6,29.91,North,353,3.1,5.4,37,0.00,,---,0.47,VWS V14.01,2013-05-24 21:35:00,
2013-05-24 17:40:00,49.6,24.5,29.91,NW,310,3.1,3.1,37,0.00,,---,0.47,VWS V14.01,2013-05-24 21:40:00,
2013-05-24 17:45:00,49.8,24.6,29.88,NNE,28,0.0,3.6,37,0.00,,---,0.47,VWS V14.01,2013-05-24 21:45:00,
2013-05-24 17:50:00,50.0,24.8,29.88,ENE,57,0.0,0.0,37,0.00,,---,0.47,VWS V14.01,2013-05-24 21:50:00,
2013-05-24 17:55:00,50.5,25.9,29.88,SE,126,0.0,0.0,38,0.00,,---,0.47,VWS V14.01,2013-05-24 21:55:00,
2013-05-24 18:00:00,50.2,24.9,29.91,ENE,58,0.0,0.0,37,0.00,,---,0.00,VWS V14.01,2013-05-24 22:00:00,
2013-05-24 18:05:00,50.0,24.8,29.91,NNW,330,6.3,6.3,37,0.00,,---,0.47,VWS V14.01,2013-05-24 22:05:00,
2013-05-24 18:10:00,50.0,24.8,29.91,North,349,3.1,3.1,37,0.00,,---,0.47,VWS V14.01,2013-05-24 22:10:00,
2013-05-24 18:15:00,49.8,24.6,29.91,NW,324,0.0,0.0,37,0.00,,---,0.47,VWS V14.01,2013-05-24 22:15:00,
2013-05-24 18:20:00,49.6,24.5,29.91,North,357,0.0,0.0,37,0.00,,---,0.47,VWS V14.01,2013-05-24 22:20:00,
2013-05-24 18:25:00,49.5,24.3,29.91,North,0,0.0,0.0,37,0.00,,---,0.47,VWS V14.01,2013-05-24 22:25:00,
2013-05-24 18:30:00,49.3,24.1,29.91,WNW,286,3.1,6.7,37,0.00,,---,0.47,VWS V14.01,2013-05-24 22:30:00,
2013-05-24 18:35:00,49.5,24.3,29.91,NE,34,8.7,8.7,37,0.00,,---,0.47,VWS V14.01,2013-05-24 22:35:00,
2013-05-24 18:40:00,49.5,24.3,29.91,NNW,337,0.0,2.2,37,0.00,,---,0.47,VWS V14.01,2013-05-24 22:40:00,
2013-05-24 18:45:00,49.6,24.5,29.91,East,83,4.0,4.0,37,0.00,,---,0.47,VWS V14.01,2013-05-24 22:45:00,
2013-05-24 18:50:00,49.5,24.3,29.91,NNE,31,2.2,3.6,37,0.00,,---,0.47,VWS V14.01,2013-05-24 22:50:00,
2013-05-24 18:55:00,49.5,24.3,29.91,NE,35,0.0,0.0,37,0.00,,---,0.47,VWS V14.01,2013-05-24 22:55:00,
2013-05-24 19:00:00,49.5,24.3,29.91,WNW,287,3.6,3.6,37,0.00,,---,0.47,VWS V14.01,2013-05-24 23:00:00,
2013-05-24 19:05:00,49.6,24.5,29.91,SW,219,0.0,0.0,37,0.00,,---,0.47,VWS V14.01,2013-05-24 23:05:00,
2013-05-24 19:10:00,49.5,24.3,29.91,ENE,57,0.0,0.0,37,0.00,,---,0.47,VWS V14.01,2013-05-24 23:10:00,
2013-05-24 19:15:00,49.6,24.5,29.91,SE,139,0.0,0.0,37,0.00,,---,0.47,VWS V14.01,2013-05-24 23:15:00,
2013-05-24 19:20:00,49.3,24.1,29.91,East,100,0.0,0.0,37,0.00,,---,0.47,VWS V14.01,2013-05-24 23:20:00,
2013-05-24 19:25:00,49.3,24.1,29.91,NNW,335,0.0,0.0,37,0.00,,---,0.47,VWS V14.01,2013-05-24 23:25:00,
2013-05-24 19:30:00,49.3,24.1,29.94,East,97,0.0,0.0,37,0.00,,---,0.47,VWS V14.01,2013-05-24 23:30:00,
2013-05-24 19:35:00,49.1,24.0,29.94,WNW,295,0.0,2.2,37,0.00,,---,0.47,VWS V14.01,2013-05-24 23:35:00,
2013-05-24 19:40:00,49.1,24.0,29.94,NE,47,0.0,2.2,37,0.00,,---,0.47,VWS V14.01,2013-05-24 23:40:00,
2013-05-24 19:45:00,48.9,23.8,29.94,ESE,115,0.0,0.0,37,0.00,,---,0.47,VWS V14.01,2013-05-24 23:45:00,
2013-05-24 19:50:00,48.7,23.6,29.94,NNW,341,4.5,10.1,37,0.00,,---,0.47,VWS V14.01,2013-05-24 23:50:00,
2013-05-24 19:55:00,48.7,23.6,29.94,NNW,340,5.8,7.6,37,0.00,,---,0.47,VWS V14.01,2013-05-24 23:55:00,
2013-05-24 20:00:00,48.7,23.6,29.94,NNW,338,0.0,6.3,37,0.00,,---,0.47,VWS V14.01,2013-05-25 00:00:00,
2013-05-24 20:05:00,48.6,23.5,29.94,NNW,340,3.1,5.4,37,0.00,,---,0.47,VWS V14.01,2013-05-25 00:05:00,
2013-05-24 20:10:00,48.4,23.3,29.94,North,3,0.0,3.6,37,0.00,,---,0.47,VWS V14.01,2013-05-25 00:10:00,
2013-05-24 20:15:00,48.0,23.0,29.94,NNE,22,3.1,7.6,37,0.00,,---,0.47,VWS V14.01,2013-05-25 00:15:00,
2013-05-24 20:20:00,47.8,23.5,29.94,North,0,3.1,3.1,38,0.00,,---,0.47,VWS V14.01,2013-05-25 00:20:00,
2013-05-24 20:25:00,47.5,23.2,29.94,NNW,327,0.0,0.0,38,0.00,,---,0.47,VWS V14.01,2013-05-25 00:25:00,
2013-05-24 20:30:00,47.5,23.2,29.97,NW,305,2.7,3.6,38,0.00,,---,0.47,VWS V14.01,2013-05-25 00:30:00,
2013-05-24 20:35:00,47.3,23.0,29.97,NNW,344,0.0,0.0,38,0.00,,---,0.47,VWS V14.01,2013-05-25 00:35:00,
2013-05-24 20:40:00,47.3,24.2,29.97,WSW,251,0.0,0.0,40,0.00,,---,0.47,VWS V14.01,2013-05-25 00:40:00,
2013-05-24 20:45:00,46.8,23.1,29.94,NE,36,0.0,0.0,39,0.00,,---,0.47,VWS V14.01,2013-05-25 00:45:00,
2013-05-24 20:50:00,46.6,23.6,29.94,NNW,341,0.0,0.0,40,0.00,,---,0.47,VWS V14.01,2013-05-25 00:50:00,
2013-05-24 20:55:00,46.4,24.6,29.94,North,353,0.0,3.6,42,0.00,,---,0.47,VWS V14.01,2013-05-25 00:55:00,
2013-05-24 21:00:00,46.6,26.4,29.97,East,80,0.0,2.2,45,0.00,,---,0.47,VWS V14.01,2013-05-25 01:00:00,
2013-05-24 21:05:00,46.4,25.7,29.97,NE,54,0.0,0.0,44,0.00,,---,0.47,VWS V14.01,2013-05-25 01:05:00,
2013-05-24 21:10:00,46.0,25.4,29.97,NNE,26,0.0,0.0,44,0.00,,---,0.47,VWS V14.01,2013-05-25 01:10:00,
2013-05-24 21:15:00,46.0,25.9,29.97,WNW,299,0.0,0.0,45,0.00,,---,0.47,VWS V14.01,2013-05-25 01:15:00,
2013-05-24 21:20:00,46.0,27.5,29.97,South,191,0.0,0.0,48,0.00,,---,0.47,VWS V14.01,2013-05-25 01:20:00,
2013-05-24 21:25:00,46.2,28.1,29.97,SSE,149,0.0,2.2,49,0.00,,---,0.47,VWS V14.01,2013-05-25 01:25:00,
2013-05-24 21:30:00,46.0,27.5,29.94,ENE,65,0.0,0.0,48,0.04,,---,0.51,VWS V14.01,2013-05-25 01:30:00,
2013-05-24 21:35:00,45.9,27.3,29.94,North,9,2.2,3.6,48,0.04,,---,0.51,VWS V14.01,2013-05-25 01:35:00,
2013-05-24 21:40:00,46.0,28.0,29.94,ENE,76,0.0,0.0,49,0.04,,---,0.51,VWS V14.01,2013-05-25 01:40:00,
2013-05-24 21:45:00,46.4,29.3,29.97,SW,218,0.0,0.0,51,0.04,,---,0.51,VWS V14.01,2013-05-25 01:45:00,
2013-05-24 21:50:00,46.2,29.6,29.97,South,190,0.0,0.0,52,0.04,,---,0.51,VWS V14.01,2013-05-25 01:50:00,
2013-05-24 21:55:00,46.0,28.5,29.97,WNW,297,0.0,0.0,50,0.04,,---,0.51,VWS V14.01,2013-05-25 01:55:00,
2013-05-24 22:00:00,46.2,29.6,29.97,SSW,195,0.0,0.0,52,0.04,,---,0.51,VWS V14.01,2013-05-25 02:00:00,
2013-05-24 22:05:00,46.4,29.8,29.97,West,267,0.0,0.0,52,0.04,,---,0.51,VWS V14.01,2013-05-25 02:05:00,
2013-05-24 22:10:00,45.9,28.8,29.97,West,267,0.0,2.2,51,0.04,,---,0.51,VWS V14.01,2013-05-25 02:10:00,
2013-05-24 22:15:00,45.7,28.1,29.97,NNW,346,0.0,0.0,50,0.04,,---,0.51,VWS V14.01,2013-05-25 02:15:00,
2013-05-24 22:20:00,45.9,28.3,29.97,SW,214,0.0,0.0,50,0.04,,---,0.51,VWS V14.01,2013-05-25 02:20:00,
2013-05-24 22:25:00,45.5,28.0,29.97,NNE,17,2.7,2.7,50,0.04,,---,0.51,VWS V14.01,2013-05-25 02:25:00,
2013-05-24 22:29:00,45.5,28.0,29.97,North,0,0.0,0.0,50,0.00,,---,0.51,VWS V14.01,2013-05-25 02:29:00,
2013-05-24 22:34:00,45.1,26.6,29.97,South,181,0.0,3.6,48,0.00,,---,0.51,VWS V14.01,2013-05-25 02:34:00,
2013-05-24 22:39:00,45.0,26.0,29.97,North,1,0.0,0.0,47,0.00,,---,0.51,VWS V14.01,2013-05-25 02:39:00,
2013-05-24 22:44:00,45.1,26.6,29.97,North,357,0.0,3.1,48,0.00,,---,0.51,VWS V14.01,2013-05-25 02:44:00,
2013-05-24 22:49:00,45.3,27.3,29.97,WNW,302,2.7,2.7,49,0.00,,---,0.51,VWS V14.01,2013-05-25 02:49:00,
2013-05-24 22:54:00,45.3,27.3,29.97,WSW,252,0.0,0.0,49,0.00,,---,0.51,VWS V14.01,2013-05-25 02:54:00,
2013-05-24 22:59:00,45.0,26.0,29.97,NE,41,0.0,0.0,47,0.00,,---,0.51,VWS V14.01,2013-05-25 02:59:00,
2013-05-24 23:04:00,45.1,26.6,29.97,North,0,0.0,0.0,48,0.00,,---,0.51,VWS V14.01,2013-05-25 03:04:00,
2013-05-24 23:09:00,45.1,27.1,29.97,East,85,0.0,0.0,49,0.00,,---,0.51,VWS V14.01,2013-05-25 03:09:00,
2013-05-24 23:14:00,45.0,26.5,30.00,NW,317,0.0,5.4,48,0.00,,---,0.51,VWS V14.01,2013-05-25 03:14:00,
2013-05-24 23:19:00,45.1,27.1,30.00,NNW,348,0.0,0.0,49,0.00,,---,0.51,VWS V14.01,2013-05-25 03:19:00,
2013-05-24 23:24:00,45.3,27.8,30.00,SE,129,0.0,0.0,50,0.00,,---,0.51,VWS V14.01,2013-05-25 03:24:00,
2013-05-24 23:29:00,45.0,27.5,30.00,NE,45,0.0,0.0,50,0.00,,---,0.51,VWS V14.01,2013-05-25 03:29:00,
2013-05-24 23:34:00,44.8,26.8,30.00,North,353,0.0,0.0,49,0.00,,---,0.51,VWS V14.01,2013-05-25 03:34:00,
2013-05-24 23:39:00,45.3,28.3,30.00,West,276,0.0,2.2,51,0.00,,---,0.51,VWS V14.01,2013-05-25 03:39:00,
2013-05-24 23:44:00,44.8,27.3,30.00,WNW,294,0.0,3.6,50,0.00,,---,0.51,VWS V14.01,2013-05-25 03:44:00,
2013-05-24 23:49:00,45.1,27.6,30.00,SE,124,0.0,0.0,50,0.00,,---,0.51,VWS V14.01,2013-05-25 03:49:00,
2013-05-24 23:54:00,45.1,28.1,30.00,NNE,33,0.0,0.0,51,0.00,,---,0.51,VWS V14.01,2013-05-25 03:54:00,
2013-05-24 23:59:00,45.3,28.3,29.97,WNW,301,0.0,0.0,51,0.00,,---,0.51,VWS V14.01,2013-05-25 03:59:00,